Weather History for OSDI - November, 2012

Change the Weather History Date:

Wednesday, November 7, 2012

  Actual Average Record
Temperature  
Mean Temperature 67 °F -  
Max Temperature 84 °F 66 °F 86 °F (1998)
Min Temperature 50 °F 38 °F 32 °F (2014)
Cooling Degree Days 2    
Growing Degree Days 17 (Base 50)    
Moisture  
Dew Point 44 °F    
Average Humidity 44    
Maximum Humidity 67    
Minimum Humidity 16    
Precipitation  
Precipitation 0.00 in 0.03 in - ()
Sea Level Pressure  
Sea Level Pressure 30.06 in    
Wind  
Wind Speed 1 mph ()    
Max Wind Speed 7 mph    
Max Gust Speed -    
Visibility 10.5 miles    
Events      
Averages and records for this station are not official NWS values.
T = Trace of Precipitation, MM = Missing Value Source: Averaged Metar Reports

Daily Weather History Graph

Daily Weather History Graph

Search for Another Location

Airport or City:

Trip Planner

Search our weather history database for the weather conditions in past years. The results will help you decide how hot, cold, wet, or windy it might be!

Date:

Astronomy

Nov. 07, 2012 Rise Set
Actual Time 5:58 AM EET 4:36 PM EET
Civil Twilight 5:32 AM EET 5:02 PM EET
Nautical Twilight 5:02 AM EET 5:32 PM EET
Astronomical Twilight 4:33 AM EET 6:01 PM EET
Moon 11:50 PM EET (11/7) 12:15 PM EET (11/7)
Length of Visible Light 11h 30m
Length of Day
10h 38m
Last Quarter, 46% of the Moon is Illuminated
Nov 7
Last Quarter
Nov 14
New
Nov 20
First Quarter
Nov 28
Full
Dec 6
Last Quarter

Hourly Weather History & Observations

Time (EET) Temp. Dew Point Humidity Pressure Visibility Wind Dir Wind Speed Gust Speed Precip Events Conditions
12:00 AM 60.8 °F 42.8 °F 52% 30.09 in - Calm Calm - N/A   Clear
1:00 AM 57.2 °F 39.2 °F 51% 30.09 in - Calm Calm - N/A   Clear
2:00 AM 57 °F 40 °F 41% 29.99 in 12 mi East 4.5 mph - -  
2:00 AM 57.2 °F 39.2 °F 51% 30.09 in - East 4.6 mph - N/A   Clear
3:00 AM 57.2 °F 41.0 °F 55% 30.09 in - East 4.6 mph - N/A   Clear
4:00 AM 59.0 °F 42.8 °F 55% 30.09 in - East 2.3 mph - N/A   Clear
5:00 AM 55.4 °F 41.0 °F 58% 30.09 in - Calm Calm - N/A   Clear
6:00 AM 51.8 °F 41.0 °F 67% 30.09 in - Calm Calm - N/A   Clear
7:00 AM 51.8 °F 41.0 °F 67% 30.12 in - Calm Calm - N/A   Clear
8:00 AM 59 °F 44 °F 46% 30.04 in 12 mi Calm Calm - -  
8:00 AM 59.0 °F 44.6 °F 59% 30.12 in - Calm Calm - N/A   Clear
9:00 AM 68.0 °F 44.6 °F 43% 30.12 in - East 4.6 mph - N/A   Clear
10:00 AM 73.4 °F 46.4 °F 38% 30.12 in - Calm Calm - N/A   Clear
11:00 AM 77.0 °F 42.8 °F 29% 30.09 in - SSW 6.9 mph - N/A   Clear
12:00 PM 78.8 °F 44.6 °F 30% 30.06 in - SSW 4.6 mph - N/A   Clear
1:00 PM 84.2 °F 44.6 °F 25% 30.06 in - Calm Calm - N/A   Clear
2:00 PM 83 °F 44 °F 16% 29.94 in 9 mi Calm Calm - -  
2:00 PM 84.2 °F 44.6 °F 25% 30.04 in - Calm Calm - N/A   Clear
3:00 PM 84.2 °F 46.4 °F 27% 30.04 in - Calm Calm - N/A   Clear
4:00 PM 80.6 °F 46.4 °F 30% 30.01 in - Calm Calm - N/A   Clear
5:00 PM 75.2 °F 51.8 °F 44% 30.01 in - Calm Calm - N/A   Clear
6:00 PM 71.6 °F 50.0 °F 46% 30.01 in - Calm Calm - N/A   Clear
7:00 PM 68.0 °F 44.6 °F 43% 30.04 in - Calm Calm - N/A   Clear
8:00 PM 64 °F 46 °F 40% 29.98 in 9 mi Calm Calm - -  
8:00 PM 64.4 °F 46.4 °F 52% 30.06 in - Calm Calm - N/A   Clear
9:00 PM 62.6 °F 42.8 °F 48% 30.06 in - NNE 6.9 mph - N/A   Clear
10:00 PM 62.6 °F 42.8 °F 48% 30.04 in - ENE 4.6 mph - N/A   Clear
11:00 PM 59.0 °F 44.6 °F 59% 30.04 in - Calm Calm - N/A   Clear